Location: Bukit Nyuki
(2.5885°N, 113.7476°E)
Time: 15:25:38
(UTC+00:00)

ATLAS 5 CENTAUR R/B - Pass Details

Date: 18 May 2021
Orbit: 513 x 1144 km, 63.3° (Epoch: 18 June)

Event Time Altitude Azimuth Distance (km) Brightness Sun altitude
Rises 13:33:46 0° 318° (NW) 3,776 6.3 -43.2°
Reaches altitude 10° 13:36:32 10° 310° (NW) 2,894 5.6 -43.8°
Enters shadow 13:40:13 27° 285° (WNW) 1,962 4.4 -44.6°
